EW9945 Weather Reports


time (UTC)temp
C
wind
direction
speed
KPH
gust
KPH
rain 1hr
cm
rain 24hr
cm
rain mn
cm
humidity
%
barometer
mb
20260905143033 21 5 3.2 12.9 0.00 0.03 0.03 71 1013.1
20260905141535 21 51 3.2 9.7 0.00 0.03 0.03 70 1013.0
20260905140027 20 79 0.0 8.0 0.00 0.03 0.03 76 1013.0
20260905134522 18 74 0.0 12.9 0.00 0.03 0.03 87 1012.9
20260905133019 16 322 4.8 11.3 0.00 0.03 0.03 92 1013.0
20260905131537 16 318 3.2 14.5 0.00 0.03 0.03 93 1012.8
20260905130015 16 279 1.6 6.4 0.00 0.03 0.03 93 1012.9
20260905124533 15 279 0.0 4.8 0.00 0.03 0.03 94 1013.1
20260905123010 15 279 0.0 0.0 0.03 0.03 0.03 94 1013.0
20260905121520 15 279 0.0 0.0 0.03 0.03 0.03 93 1012.9
20260905120009 15 279 0.0 0.0 0.03 0.03 0.03 93 1013.0
20260905114519 14 279 0.0 0.0 0.03 0.03 0.03 93 1013.0
20260905113004 14 279 0.0 0.0 0.03 0.03 0.03 93 1012.9
20260905111503 14 279 0.0 0.0 0.00 0.00 0.00 93 1012.6
20260905110001 14 279 0.0 0.0 0.00 0.00 0.00 93 1012.2
20260905104600 14 279 0.0 0.0 0.00 0.00 0.00 93 1012.1
20260905103058 14 279 0.0 0.0 0.00 0.00 0.00 93 1011.9
20260905101619 13 279 0.0 0.0 0.00 0.00 0.00 92 1011.7
20260905100054 14 279 0.0 0.0 0.00 0.00 0.00 92 1011.7
20260905094552 15 279 0.0 0.0 0.00 0.00 0.00 92 1011.7
20260905093051 15 279 0.0 0.0 0.00 0.00 0.00 92 1011.7
20260905091550 15 279 0.0 0.0 0.00 0.00 0.00 92 1011.7
20260905090048 15 279 0.0 0.0 0.00 0.00 0.00 92 1011.5
20260905084603 15 279 0.0 0.0 0.00 0.00 0.00 92 1011.4
20260905083046 15 279 0.0 0.0 0.00 0.00 0.00 91 1011.5
20260905081544 16 279 0.0 0.0 0.00 0.00 0.00 92 1011.4
20260905080043 16 279 0.0 0.0 0.00 0.00 0.00 92 1011.4
20260905074543 16 279 0.0 0.0 0.00 0.00 0.00 91 1011.6
20260905073042 16 279 0.0 0.0 0.00 0.00 0.00 91 1011.6
20260905071541 16 279 0.0 0.0 0.00 0.00 0.00 91 1011.8
20260905070042 16 279 0.0 0.0 0.00 0.00 0.00 90 1012.0
20260905064539 17 279 0.0 0.0 0.00 0.00 0.00 89 1012.0
20260905063036 17 279 0.0 0.0 0.00 0.00 0.00 88 1012.2
20260905061539 17 279 0.0 0.0 0.00 0.00 0.00 87 1012.3
20260905060034 17 279 0.0 0.0 0.00 0.00 0.00 86 1012.3
20260905054535 18 279 0.0 0.0 0.00 0.00 0.00 85 1012.4
20260905053032 18 279 0.0 0.0 0.00 0.00 0.00 84 1012.4
20260905051536 18 279 0.0 0.0 0.00 0.00 0.00 84 1012.5
20260905050031 18 279 0.0 0.0 0.00 0.00 0.00 85 1012.6
20260905044534 18 279 0.0 0.0 0.00 0.00 0.00 84 1012.6
20260905043030 18 279 0.0 0.0 0.00 0.00 0.00 83 1012.6
20260905041530 18 279 0.0 0.0 0.00 0.00 0.00 84 1012.6
20260905040032 18 279 0.0 0.0 0.00 0.00 0.00 83 1012.6
20260905034531 18 279 0.0 0.0 0.00 0.00 0.00 83 1012.4
20260905033028 18 279 0.0 0.0 0.00 0.00 0.00 82 1012.4
20260905031535 19 279 0.0 0.0 0.00 0.00 0.00 82 1012.3
20260905030034 19 279 0.0 0.0 0.00 0.00 0.00 81 1012.3
20260905024527 19 279 0.0 0.0 0.00 0.00 0.00 82 1012.3
20260905023032 19 279 0.0 0.0 0.00 0.00 0.00 82 1012.3
20260905021529 19 279 0.0 4.8 0.00 0.00 0.00 80 1012.5
20260905020028 20 284 1.6 11.3 0.00 0.00 0.00 80 1012.5
20260905014527 20 360 11.3 20.9 0.00 0.00 0.00 77 1012.6
20260905013026 20 304 6.4 12.9 0.00 0.00 0.00 78 1012.5
20260905011526 20 340 3.2 9.7 0.00 0.00 0.00 79 1012.4
20260905010026 21 340 1.6 8.0 0.00 0.00 0.00 80 1012.4
20260905004526 21 340 0.0 0.0 0.00 0.00 0.00 81 1012.4
20260905003025 21 340 0.0 0.0 0.00 0.00 0.00 80 1012.2
20260905001524 21 340 0.0 0.0 0.00 0.00 0.00 79 1012.1
20260905000023 21 340 0.0 0.0 0.00 0.00 0.00 77 1011.9
20260904234536 22 340 0.0 0.0 0.00 0.00 0.00 77 1011.7
20260904233025 22 340 0.0 0.0 0.00 0.00 0.00 76 1011.5
20260904231524 22 340 0.0 0.0 0.00 0.00 0.00 75 1011.6
20260904230030 23 340 0.0 0.0 0.00 0.00 0.00 73 1011.6
20260904224537 23 340 0.0 0.0 0.00 0.00 0.00 73 1011.4
20260904223023 23 340 0.0 0.0 0.00 0.00 0.00 71 1011.5
20260904221522 23 340 0.0 0.0 0.00 0.00 0.00 71 1011.3
20260904220023 24 340 0.0 0.0 0.00 0.00 0.00 71 1011.3
20260904214537 23 340 0.0 8.0 0.00 0.00 0.00 68 1011.2
20260904213021 24 339 0.0 11.3 0.00 0.00 0.00 66 1011.0
20260904211521 24 325 3.2 11.3 0.00 0.00 0.00 66 1011.0
20260904210020 24 311 0.0 0.0 0.00 0.00 0.00 69 1011.2
20260904204518 24 311 1.6 8.0 0.00 0.00 0.00 68 1011.5
20260904203017 24 311 0.0 0.0 0.00 0.00 0.00 68 1011.5
20260904201515 25 311 0.0 9.7 0.00 0.00 0.00 66 1011.7
20260904200024 24 301 0.0 4.8 0.00 0.00 0.00 72 1011.8
20260904194512 24 290 0.0 4.8 0.00 0.00 0.00 71 1011.9
20260904193011 24 289 0.0 0.0 0.00 0.00 0.00 73 1011.9
20260904191513 24 289 0.0 0.0 0.00 0.00 0.00 74 1012.3
20260904190006 23 289 0.0 1.6 0.00 0.00 0.00 75 1012.3
20260904184517 23 289 0.0 6.4 0.00 0.00 0.00 74 1012.3
20260904183005 23 303 1.6 9.7 0.00 0.00 0.00 74 1012.5
20260904181504 23 309 1.6 11.3 0.00 0.00 0.00 75 1012.8
20260904180004 22 295 1.6 11.3 0.00 0.00 0.00 76 1013.0
20260904174504 22 298 0.0 9.7 0.00 0.00 0.00 75 1013.1
20260904173004 22 311 1.6 8.0 0.00 0.00 0.00 75 1013.3
20260904171503 23 297 3.2 16.1 0.00 0.00 0.00 74 1013.2
20260904170002 22 303 6.4 14.5 0.00 0.00 0.00 73 1013.2
20260904164502 22 319 8.0 16.1 0.00 0.00 0.00 77 1013.3
20260904163002 22 302 9.7 17.7 0.00 0.00 0.00 76 1013.3
20260904161502 23 329 4.8 12.9 0.00 0.00 0.00 76 1013.4
20260904160002 23 301 1.6 11.3 0.00 0.00 0.00 73 1013.3
20260904154600 23 300 6.4 12.9 0.00 0.00 0.00 74 1013.3
20260904153105 23 319 4.8 12.9 0.00 0.00 0.00 75 1013.5
20260904151603 23 300 0.0 11.3 0.00 0.00 0.00 77 1013.3
20260904150058 22 344 0.0 9.7 0.00 0.00 0.00 78 1013.2
20260904144555 22 336 0.0 8.0 0.00 0.00 0.00 80 1013.0